Weather History for KARR - June, 2013

Change the Weather History Date:

Thursday, June 20, 2013

  Actual Average Record
Temperature  
Mean Temperature 72 °F 70 °F  
Max Temperature 88 °F 82 °F 93 °F (2012)
Min Temperature 55 °F 59 °F 47 °F (2004)
Degree Days  
Heating Degree Days 0 1  
Month to date heating degree days 44 37  
Since 1 June heating degree days 44 37  
Since 1 July heating degree days 6698 6771  
Cooling Degree Days 7 6  
Month to date cooling degree days 64 88  
Year to date cooling degree days 144 129  
Since 1 June cooling degree days 64 88  
Growing Degree Days 21 (Base 50)    
Moisture  
Dew Point 58 °F    
Average Humidity 59    
Maximum Humidity 78    
Minimum Humidity 40    
Precipitation  
Precipitation 0.00 in 0.09 in 0.75 in (2000)
Month to date precipitation 2.52 3.03  
Year to date precipitation 19.38 15.91  
Sea Level Pressure  
Sea Level Pressure 30.11 in    
Wind  
Wind Speed 5 mph (SE)    
Max Wind Speed 13 mph    
Max Gust Speed 16 mph    
Visibility 10 miles    
Events      
T = Trace of Precipitation, MM = Missing Value Source: NWS Daily Summary

Daily Weather History Graph

Daily Weather History Graph

Search for Another Location

Airport or City:

Trip Planner

Search our weather history database for the weather conditions in past years. The results will help you decide how hot, cold, wet, or windy it might be!

Date:

Astronomy

Jun. 20, 2013 Rise Set
Actual Time 5:19 AM CDT 8:32 PM CDT
Civil Twilight 4:44 AM CDT 9:06 PM CDT
Nautical Twilight 4:00 AM CDT 9:50 PM CDT
Astronomical Twilight 3:07 AM CDT 10:43 PM CDT
Moon 5:32 PM CDT (6/20) 2:47 AM CDT (6/20)
Length of Visible Light 16h 21m
Length of Day
15h 12m
Waxing Gibbous, 89% of the Moon is Illuminated
Jun 20
Waxing Gibbous
Jun 23
Full
Jun 29
Last Quarter
Jul 8
New
Jul 15
First Quarter

Hourly Weather History & Observations

Time (CDT) Temp. Heat Index Dew Point Humidity Pressure Visibility Wind Dir Wind Speed Gust Speed Precip Events Conditions
12:52 AM 60.1 °F - 48.9 °F 67% 30.12 in 10.0 mi East 3.5 mph - N/A   Clear
1:52 AM 59.0 °F - 48.0 °F 67% 30.12 in 10.0 mi NE 4.6 mph - N/A   Clear
2:52 AM 57.0 °F - 46.9 °F 69% 30.12 in 10.0 mi Calm Calm - N/A   Clear
3:52 AM 57.0 °F - 48.0 °F 72% 30.13 in 10.0 mi Calm Calm - N/A   Clear
4:52 AM 55.9 °F - 48.0 °F 75% 30.13 in 10.0 mi Calm Calm - N/A   Clear
5:52 AM 55.9 °F - 48.9 °F 77% 30.14 in 10.0 mi Calm Calm - N/A   Clear
6:52 AM 61.0 °F - 52.0 °F 72% 30.14 in 10.0 mi ENE 3.5 mph - N/A   Clear
7:52 AM 66.9 °F - 55.0 °F 66% 30.15 in 10.0 mi East 3.5 mph - N/A   Mostly Cloudy
8:52 AM 73.0 °F - 59.0 °F 61% 30.15 in 10.0 mi SE 9.2 mph - N/A   Clear
9:52 AM 77.0 °F - 62.1 °F 60% 30.15 in 10.0 mi South 5.8 mph - N/A   Clear
10:52 AM 80.1 °F 81.7 °F 64.0 °F 58% 30.14 in 10.0 mi Variable 5.8 mph - N/A   Clear
11:52 AM 82.0 °F 83.1 °F 63.0 °F 52% 30.14 in 10.0 mi South 3.5 mph - N/A   Clear
12:52 PM 84.0 °F 84.9 °F 63.0 °F 49% 30.13 in 10.0 mi South 8.1 mph 16.1 mph N/A   Scattered Clouds
1:52 PM 86.0 °F 86.3 °F 62.1 °F 44% 30.12 in 10.0 mi SE 4.6 mph - N/A   Scattered Clouds
2:52 PM 86.0 °F 86.1 °F 61.0 °F 43% 30.10 in 10.0 mi SSE 8.1 mph - N/A   Clear
3:52 PM 87.1 °F 87.5 °F 62.1 °F 43% 30.09 in 10.0 mi Variable 4.6 mph - N/A   Clear
4:52 PM 87.1 °F 87.5 °F 62.1 °F 43% 30.08 in 10.0 mi SE 8.1 mph - N/A   Clear
5:52 PM 87.1 °F 86.7 °F 60.1 °F 40% 30.06 in 10.0 mi South 10.4 mph - N/A   Scattered Clouds
6:52 PM 86.0 °F 85.4 °F 59.0 °F 40% 30.05 in 10.0 mi SSE 6.9 mph - N/A   Clear
7:52 PM 82.0 °F 82.7 °F 61.0 °F 49% 30.05 in 10.0 mi SE 6.9 mph - N/A   Clear
8:52 PM 77.0 °F - 61.0 °F 58% 30.06 in 10.0 mi SE 5.8 mph - N/A   Clear
9:52 PM 75.9 °F - 61.0 °F 60% 30.08 in 10.0 mi ESE 4.6 mph - N/A   Clear
10:52 PM 72.0 °F - 62.1 °F 71% 30.09 in 10.0 mi SE 5.8 mph - N/A   Clear
11:52 PM 70.0 °F - 62.1 °F 76% 30.10 in 10.0 mi SE 4.6 mph - N/A   Clear